Location: Hamburg
(53.5500°N, 10.0000°E)
Time: 13:25:17
(UTC+02:00)

ISS - Visible Passes

Search period start: 29 May 2017 00:00
Search period end: 08 June 2017 00:00
Orbit: 402 x 408 km, 51.6° (Epoch: 29 May)

Date Brightness Start Highest point End Pass type
(mag) Time Alt. Az. Time Alt. Az. Time Alt. Az.
29 May -3.7 00:50:48 10° W 00:54:01 51° SSW 00:56:00 20° SE visible
29 May -1.8 02:27:36 10° W 02:28:36 15° WSW 02:28:36 15° WSW visible
29 May -3.6 22:22:30 10° WSW 22:25:43 51° SSE 22:28:56 10° E visible
29 May -3.8 23:58:47 10° W 00:02:03 59° S 00:05:09 11° ESE visible
30 May -2.7 01:35:21 10° W 01:37:46 26° SW 01:37:46 26° SW visible
30 May -3.8 23:06:46 10° W 23:10:02 63° S 23:13:19 10° E visible
31 May -3.2 00:43:13 10° W 00:46:18 37° SSW 00:47:06 31° SSE visible
31 May -3.5 23:51:08 10° W 23:54:20 47° SSW 23:56:31 18° SE visible
01 Jun -1.7 01:28:04 10° WSW 01:29:09 15° WSW 01:29:09 15° WSW visible
01 Jun -3.7 22:59:04 10° W 23:02:19 56° S 23:05:34 10° ESE visible
02 Jun -2.6 00:35:42 10° W 00:38:27 24° SSW 00:38:38 24° SSW visible
02 Jun -3.0 23:43:30 10° W 23:46:30 33° SSW 23:48:09 20° SSE visible
03 Jun -3.3 22:51:22 10° W 22:54:31 43° SSW 22:57:40 10° SE visible
04 Jun -1.8 00:28:29 10° WSW 00:30:21 15° SW 00:30:21 15° SW visible
04 Jun -2.2 23:35:58 10° W 23:38:33 21° SSW 23:39:56 17° S visible
05 Jun -2.7 22:43:40 10° W 22:46:36 29° SSW 22:49:32 10° SE visible
06 Jun -1.5 23:28:54 10° WSW 23:30:26 13° SW 23:31:49 11° SSW visible
07 Jun -1.9 22:36:08 10° W 22:38:33 19° SSW 22:40:56 10° SSE visible
